Location: Unspecified
(38.5482°N, 1.4063°W)
Time: 01:49:58
(UTC+00:00)

ISS - Visible Passes

Search period start: 24 April 2019 00:00
Search period end: 04 May 2019 00:00
Orbit: 408 x 410 km, 51.6° (Epoch: 24 April)

Date Brightness Start Highest point End Pass type
(mag) Time Alt. Az. Time Alt. Az. Time Alt. Az.
27 Apr -1.5 04:13:24 10° S 04:15:46 18° SE 04:18:09 10° E visible
29 Apr -3.2 04:08:05 17° SSW 04:10:24 51° SE 04:13:37 10° ENE visible
30 Apr -2.2 03:19:20 25° SE 03:19:38 26° SE 03:22:27 10° ENE visible
01 May -0.7 02:30:30 11° E 02:30:30 11° E 02:30:41 10° E visible
01 May -3.5 04:03:14 22° WSW 04:05:10 56° NW 04:08:26 10° NE visible
02 May -3.8 03:14:19 74° SE 03:14:19 74° SE 03:17:33 10° NE visible
03 May -1.2 02:25:19 19° ENE 02:25:19 19° ENE 02:26:30 10° ENE visible
03 May -2.2 03:58:03 15° WNW 04:00:03 25° NNW 04:02:53 10° NNE visible
